{"data":{"norad_id":49114,"intl_designator":"2021-076C","name":"RSW-02","alt_names":[],"object_type":"PAYLOAD","status":"ACTIVE","operator":null,"country":"PRC","launch_date":"2021-08-24","launch_site_code":"JSC","launch_vehicle":null,"mission":null,"orbit_class":"UNKNOWN","rcs_meters":null,"size_class":null,"mass_kg":null,"dimensions":null,"purposes":[],"wikipedia_slug":null,"has_3d_model":false,"image_url":null,"decayed_at":null,"tle_current":{"epoch":"2026-05-25T03:59:23.580960Z","epoch_age_seconds":56864,"freshness":"FRESH","line1":"1 49114U 21076C   26145.16624515  .00000101  00000+0  14930-3 0  9994","line2":"2 49114  86.4107 166.0203 0020726 122.9373 237.3768 13.42857915232793","mean_motion":13.42857915,"eccentricity":0.0020726,"inclination_deg":86.4107,"raan_deg":166.0203,"arg_perigee_deg":122.9373,"mean_anomaly_deg":237.3768,"bstar":0.0001493,"rev_number":23279,"period_min":107.23398089365,"perigee_km":1083.1557396654,"apogee_km":1114.1485259787,"semimajor_km":7476.7891328221,"source":"CELESTRAK","updated_at":"2026-05-25T13:37:57.086483Z"}}}